SCP
0 0 -0 -0 -0 0 0 0 -0 -0 -0 -0 -0 -0 -0 -0 -0 -0 -0 -0 -0 -0 -0 -0 -0 -0 -0 -0 0 0 0 0 0 0 0 -0 -0 0 0 0 0 -0 0
-0 0 -0 -0 -0 0 0 0 -0 -0 -0 -0 -0 -0 -0 -0 -0 -0 0 -0 -0 -0 -0 -0 -0 -0 -0 0 0 0 0 0 0 0 -0 -0 -0 -0 -0 0 0 0 0
-0 0 0 -0 0 0 -0 0 -0 -0 -0 -0 -0 -0 -0 -0 -0 0 -0 -0 -0 -0 -0 -0 -0 -0 -0 0 0 0 0 0 0 0 -0 -0 -0 -0 -0 0 -0 0 0
-0 0 0 0 -0 -0 0 0 -0 -0 -0 -0 -0 -0 -0 -0 -0 -0 -0 -0 -0 -0 0 0 0 -0 0 0 0 0 0 0 -0 -0 -0 -0 -0 -0 -0 0 0 -0 0
0 0 0 0 -0 0 0 0 -0 -0 -0 -0 -0 -0 -0 -0 0 0 0 -0 0 0 0 0 0 -0 0 0 0 0 -0 -0 -0 -0 -0 -0 -0 -0 0 0 0 0 0
0 0 0 -0 -0 -0 -0 -0 -0 -0 -0 -0 -0 -0 -0 -0 0 0 0 0 0 0 -0 -0 -0 -0 -0 -0 -0 -0 -0 -0 -0 -0 -0 -0 -0 0 0 0 0 0 0
0 0 0 -0 -0 -0 -0 -0 -0 -0 -0 -0 -0 0 0 0 -0 0 0 0 0 -0 -0 -0 -0 -0 -0 -0 -0 -0 -0 -0 -0 -0 -0 0 0 0 0 0 0 0 0
0 0 0 0 0 -0 -0 -0 -0 -0 -0 -0 -0 -0 0 0 0 0 0 -0 -0 -0 -0 -0 -0 -0 -0 -0 -0 -0 -0 -0 0 0 0 0 0 0 0 0 0 0 0
0 0 0 0 0 0 0 0 -0 -0 -0 -0 -0 -0 -0 -0 -0 -0 -0 -0 -0 -0 -0 -0 -0 -0 -0 -0 -0 -0 0 0 0 0 0 0 0 0 0 0 0 0 0
0 0 0 0 0 0 0 0 0 0 0 0 0 0 -0 -0 -0 -0 -0 -0 -0 -0 -0 0 -0 -0 -0 -0 -0 -0 0 0 0 0 0 0 0 0 0 0 0 0 0
0 0 0 0 0 0 0 0 0 0 0 0 0 -0 -0 -0 -0 -0 -0 -0 -0 -0 0 0 0 0 0 0 0 0 0 0 0 0 0 0 0 0 0 0 0 0 0
0 0 0 0 0 0 0 0 0 0 0 0 0 -0 -0 -0 -0 -0 -0 0 -0 -0 0 -0 -0 0 0 0 0 0 0 0 0 0 0 0 0 0 0 0 0 0 0
0 0 0 0 0 0 0 0 0 0 0 0 -0 -0 -0 -0 -0 -0 0 0 0 0 0 0 0 0 0 0 0 0 0 0 0 0 0 0 0 0 0 0 0 0 0
0 0 0 0 0 0 0 0 -0 0 0 0 -0 -0 0 0 0 0 0 0 0 0 0 0 0 0 0 0 0 0 0 0 0 0 0 0 0 0 0 0 0 0 0
0 0 0 0 0 0 0 0 0 0 0 0 0 0 0 0 0 0 0 0 0 0 0 0 0 0 0 0 0 0 0 0 0 0 0 0 0 0 0 0 0 0 0
0 0 0 0 0 0 0 0 0 0 0 0 0 0 0 0 0 0 0 0 0 0 0 0 0 0 0 0 0 0 0 0 0 0 0 0 0 0 0 0 0 0 0
0 0 0 0 0 0 0 0 0 0 0 0 0 0 0 0 0 0 0 0 0 0 0 0 0 0 0 0 0 0 0 0 0 0 0 0 0 0 0 0 0 0 0
0 0 0 0 0 0 0 0 0 0 0 0 0 0 0 0 0 0 0 0 0 0 0 0 0 0 0 0 0 0 0 0 0 0 0 0 0 0 0 0 0 0 0
0 0 0 0 0 0 0 0 0 0 0 0 0 0 0 0 0 0 0 0 0 0 0 0 0 0 0 0 0 0 0 0 0 0 0 0 0 0 0 0 0 0 0
0 0 0 0 0 0 0 0 0 0 0 0 0 0 0 0 0 0 0 0 0 0 0 0 0 0 0 0 0 0 0 0 0 0 0 0 0 0 0 0 0 0 0
0 0 0 0 0 0 0 0 0 0 0 0 0 0 0 0 0 0 0 0 0 0 0 0 0 0 0 0 0 0 0 0 0 0 0 0 0 0 0 0 0 0 0
0 0 0 0 0 0 0 0 0 0 0 0 0 0 0 0 0 0 0 0 0 0 0 0 0 0 0 0 0 0 0 0 0 0 0 0 0 0 0 0 0 0 0
0 0 0 0 0 0 0 0 0 0 0 0 0 0 0 0 0 0 0 0 0 0 0 0 0 0 0 0 0 0 0 0 0 0 0 0 0 0 0 0 0 0 0
0 0 0 0 0 0 0 0 0 0 0 0 0 0 0 0 0 0 0 0 0 0 0 0 0 0 0 0 0 0 0 0 0 0 0 0 0 0 0 0 0 0 0
0 0 0 0 0 0 0 0 0 0 0 0 0 0 0 0 0 0 0 0 0 0 0 0 0 0 0 0 0 0 0 0 0 0 0 0 0 0 0 0 -0 -0 -0
0 0 0 0 0 0 0 0 0 0 0 0 0 0 0 0 0 0 0 0 0 0 0 0 0 0 0 0 0 0 0 0 0 0 0 0 0 0 0 0 0 0 -0
Wind_Speed_500mb
42 42 36 32 35 37 38 32 31 29 23 20 20 23 25 26 28 29 31 29 29 30 30 31 30 29 28 28 27 26 25 24 23 23 24 26 28 29 26 25 23 22 21
54 46 38 34 39 40 38 34 32 30 24 20 19 21 23 24 26 27 29 29 29 29 29 28 28 28 28 27 26 25 24 23 22 23 24 26 25 27 28 26 24 22 22
53 50 40 37 40 41 39 34 33 30 21 19 18 21 22 23 24 26 26 27 28 28 26 26 27 26 26 24 23 22 22 20 19 20 22 24 24 28 30 29 28 28 27
57 48 41 42 38 40 39 35 32 30 20 19 17 19 20 22 23 24 25 25 25 24 25 25 24 24 23 23 23 24 24 23 20 20 20 22 24 26 31 29 28 27 27
51 48 43 42 39 40 39 37 37 30 26 15 12 15 18 21 24 23 23 24 23 23 23 22 21 22 22 22 22 21 21 21 19 18 20 21 20 25 32 35 35 33 32
51 47 43 41 40 41 40 39 40 35 22 11 9 13 17 20 22 24 25 23 22 21 19 19 20 20 21 21 21 21 21 22 20 18 22 22 21 24 33 41 42 34 33
54 48 42 40 40 42 41 39 36 28 17 11 11 16 20 22 23 24 22 21 19 18 18 18 19 20 19 19 19 19 21 19 19 21 22 25 26 30 36 40 45 37 34
58 49 45 45 44 43 39 35 30 22 16 12 14 19 22 24 24 22 19 18 16 17 17 18 18 18 18 18 19 20 21 19 23 24 24 29 26 29 34 37 47 42 34
54 49 49 52 45 40 36 31 25 19 16 16 20 23 24 23 22 20 17 16 16 16 16 18 18 18 19 20 23 23 23 23 26 28 26 27 27 28 29 41 49 40 33
43 47 50 52 48 41 37 30 24 20 20 23 25 25 23 22 20 17 15 15 15 15 15 17 18 18 19 22 23 23 21 25 23 25 27 28 25 24 38 48 40 31 31
44 52 54 51 46 41 35 30 25 23 25 26 27 25 22 20 17 15 14 14 13 15 15 16 17 18 19 20 20 17 18 21 20 18 23 25 23 32 42 38 30 30 26
55 57 55 50 43 39 35 30 27 27 27 28 27 24 21 17 14 13 12 11 13 13 14 15 20 20 20 22 21 19 16 21 20 20 22 20 24 37 31 19 18 18 18
54 55 54 48 42 38 35 32 29 28 28 26 22 19 16 15 11 10 8 8 9 13 13 17 21 20 20 22 20 19 19 17 16 17 21 28 31 24 19 23 21 21 21
57 54 50 45 42 37 32 29 26 24 28 25 22 17 14 12 9 6 3 7 9 12 16 16 24 19 19 17 16 15 15 17 19 21 23 23 17 16 20 25 26 26 29
58 56 51 46 44 36 27 26 29 26 25 23 20 16 13 10 7 4 2 3 9 11 16 19 25 23 16 15 15 15 15 15 14 15 15 11 14 21 24 24 27 29 28
52 52 52 46 42 37 27 29 25 26 25 22 19 17 15 12 8 5 3 8 9 13 21 24 17 15 15 13 12 12 11 9 7 7 8 12 16 22 24 25 31 32 34
61 55 57 53 49 39 35 32 26 25 23 20 19 17 13 10 8 7 9 9 15 19 18 14 13 12 11 11 13 10 10 7 4 8 11 14 16 22 27 31 36 35 32
64 70 66 58 52 45 41 34 27 27 28 25 22 17 14 11 11 11 11 14 14 11 9 7 7 9 11 12 11 12 7 5 5 8 12 14 18 24 28 34 35 37 30
69 61 69 62 55 51 43 37 38 33 31 28 24 20 17 12 12 12 13 12 8 5 4 6 8 8 10 13 14 10 4 5 6 5 10 15 21 27 32 36 37 30 25
59 59 65 63 55 49 50 48 42 38 35 30 26 22 16 13 12 11 10 6 2 2 3 5 8 12 16 16 12 3 3 4 6 7 11 18 23 28 34 35 36 31 24
56 57 67 65 58 55 58 54 47 43 37 31 27 21 18 14 11 10 6 3 2 2 3 6 10 14 15 15 9 3 7 11 14 11 19 21 26 32 36 35 30 25 24
57 57 63 64 60 60 56 52 47 45 37 31 26 21 18 14 10 8 6 4 1 4 8 12 15 17 19 19 17 10 6 12 13 25 15 22 36 35 28 21 20 26 29
61 60 57 58 61 61 61 56 53 47 37 32 24 21 18 14 12 11 7 3 1 6 12 17 18 19 19 18 17 11 8 6 23 14 24 28 36 28 20 19 28 29 38
62 55 52 55 61 66 58 54 48 43 39 31 27 24 20 18 16 13 8 1 7 12 16 17 17 18 17 16 15 14 11 13 11 14 19 27 32 25 20 25 37 40 39
64 60 54 55 59 60 57 53 47 45 41 37 32 27 26 24 19 12 5 5 10 13 16 16 16 18 20 19 16 12 13 13 14 19 29 43 28 29 29 33 41 40 46
71 64 61 61 57 61 58 52 54 52 43 37 36 35 31 23 15 10 6 9 13 14 12 14 20 22 23 23 21 17 15 14 16 17 26 37 39 34 24 33 36 38 58
Wind_Direction_500mb
173 171 169 165 161 156 153 150 147 142 133 116 100 102 110 111 113 114 111 106 102 96 91 86 83 79 75 69 65 59 54 51 46 44 44 41 40 38 29 22 16 12 9
163 169 168 166 160 160 155 155 152 147 137 124 105 102 108 108 108 108 107 105 100 93 87 83 78 74 69 64 60 54 48 42 37 35 40 41 38 32 23 19 13 7 357
164 165 167 160 158 163 161 157 156 155 144 126 103 97 100 105 113 109 106 99 93 90 88 81 74 69 64 60 55 50 45 41 39 38 36 40 39 29 21 15 9 4 357
160 163 163 157 159 163 164 160 158 156 144 124 96 89 98 104 104 107 102 98 96 92 84 76 70 64 58 54 51 48 44 37 35 31 35 35 33 22 18 10 5 1 355
165 163 164 158 159 160 160 159 156 153 139 122 91 93 102 108 106 106 102 96 90 82 75 69 64 60 57 55 54 49 41 32 26 25 20 24 23 13 11 2 356 356 355
169 165 162 159 159 160 159 158 157 154 146 138 112 107 112 113 113 103 98 94 85 79 72 66 63 60 55 49 43 37 29 21 17 18 8 10 8 356 359 357 352 349 350
170 169 162 155 158 161 158 157 160 163 165 157 141 127 121 111 107 101 96 89 82 77 72 66 59 53 45 37 31 24 16 15 22 10 4 6 4 1 352 345 345 340 335
174 172 167 161 160 159 161 162 167 172 175 167 143 132 121 116 109 102 97 91 83 74 65 57 50 42 32 24 18 11 7 13 10 8 14 4 359 352 339 337 338 333 325
177 176 176 170 169 167 168 171 175 180 177 156 142 132 125 118 111 106 99 88 75 64 53 44 37 29 26 19 8 5 5 6 10 359 350 343 343 346 331 333 331 331 332
180 184 180 178 177 176 176 178 184 183 164 149 138 132 128 122 116 110 96 82 67 53 44 34 27 26 19 11 12 16 13 6 3 2 351 343 349 333 327 328 333 345 0
185 185 183 177 177 180 182 184 182 171 158 147 142 139 134 128 123 108 88 75 59 46 35 26 21 10 7 7 3 4 349 348 338 336 339 344 345 321 321 335 1 15 12
178 180 181 180 180 180 181 180 173 166 158 154 152 148 144 136 125 108 86 65 53 36 19 15 358 358 348 343 341 338 335 333 329 320 324 337 318 318 330 16 20 3 359
173 175 178 177 178 178 178 178 175 167 163 158 157 153 149 136 114 102 88 59 24 25 352 344 347 339 336 329 330 332 329 335 339 331 325 319 322 325 345 1 14 14 11
176 172 173 175 173 169 174 182 178 172 163 162 162 160 148 136 139 115 71 34 18 349 336 329 324 324 325 327 331 334 328 326 326 328 330 336 337 341 14 21 31 20 5
178 177 172 172 174 173 169 171 168 163 164 161 160 159 162 157 156 135 79 337 322 326 313 300 305 316 327 336 334 337 333 328 341 343 341 335 334 346 351 356 351 355 1
182 182 179 178 171 179 178 170 161 165 162 163 162 165 169 181 184 194 265 293 295 290 294 306 314 331 342 355 350 347 336 325 334 328 334 322 335 346 344 342 347 346 345
184 183 184 179 182 179 182 181 173 167 167 164 164 175 176 196 211 228 246 264 285 293 303 313 329 349 358 359 350 350 326 313 298 317 319 317 330 339 337 337 342 338 343
196 189 185 184 181 179 185 192 185 172 172 179 190 196 208 226 230 229 252 290 299 298 308 336 351 2 356 2 1 335 309 270 269 304 310 311 323 330 330 333 334 340 349
203 196 185 187 186 188 194 187 181 183 183 190 199 212 223 242 254 271 287 292 292 305 329 334 348 357 3 358 360 348 300 262 246 244 286 309 322 329 333 331 335 338 350
195 194 189 187 188 192 192 186 185 188 194 197 207 222 246 238 246 263 277 275 297 340 329 340 341 344 345 350 1 329 216 198 201 251 311 317 324 328 329 332 331 337 346
191 188 189 189 191 189 187 184 189 193 199 207 213 223 230 236 248 262 253 212 224 267 322 342 335 328 329 339 17 166 213 253 249 307 319 321 324 332 326 323 325 341 342
192 191 189 193 193 192 186 189 196 200 201 213 224 222 223 230 237 224 197 194 198 357 343 335 338 340 345 352 355 351 200 242 246 301 313 330 336 337 339 349 352 341 341
197 194 195 196 194 190 190 195 199 203 209 219 216 214 208 202 194 182 182 178 305 335 335 340 345 355 0 1 359 2 319 280 307 266 305 343 349 353 357 355 350 342 336
195 195 197 197 192 193 198 205 207 214 217 219 214 205 197 183 181 176 170 154 349 350 350 347 356 2 8 1 355 349 337 310 319 312 314 340 0 350 346 342 344 334 336
189 193 192 192 192 196 203 208 212 212 219 213 204 194 188 177 169 152 111 32 3 353 348 353 354 358 356 360 9 4 344 333 328 315 318 330 360 349 332 337 336 333 335
188 192 196 195 197 204 209 214 218 217 211 209 195 187 176 160 141 125 77 8 353 349 355 3 1 356 356 357 360 1 1 358 340 337 329 334 338 350 338 338 332 332 333
Wind_Speed_850mb
42 42 36 32 35 37 38 32 31 29 23 20 20 23 25 26 28 29 31 29 29 30 30 31 30 29 28 28 27 26 25 24 23 23 24 26 28 29 26 25 23 22 21
54 46 38 34 39 40 38 34 32 30 24 20 19 21 23 24 26 27 29 29 29 29 29 28 28 28 28 27 26 25 24 23 22 23 24 26 25 27 28 26 24 22 22
53 50 40 37 40 41 39 34 33 30 21 19 18 21 22 23 24 26 26 27 28 28 26 26 27 26 26 24 23 22 22 20 19 20 22 24 24 28 30 29 28 28 27
57 48 41 42 38 40 39 35 32 30 20 19 17 19 20 22 23 24 25 25 25 24 25 25 24 24 23 23 23 24 24 23 20 20 20 22 24 26 31 29 28 27 27
51 48 43 42 39 40 39 37 37 30 26 15 12 15 18 21 24 23 23 24 23 23 23 22 21 22 22 22 22 21 21 21 19 18 20 21 20 25 32 35 35 33 32
51 47 43 41 40 41 40 39 40 35 22 11 9 13 17 20 22 24 25 23 22 21 19 19 20 20 21 21 21 21 21 22 20 18 22 22 21 24 33 41 42 34 33
54 48 42 40 40 42 41 39 36 28 17 11 11 16 20 22 23 24 22 21 19 18 18 18 19 20 19 19 19 19 21 19 19 21 22 25 26 30 36 40 45 37 34
58 49 45 45 44 43 39 35 30 22 16 12 14 19 22 24 24 22 19 18 16 17 17 18 18 18 18 18 19 20 21 19 23 24 24 29 26 29 34 37 47 42 34
54 49 49 52 45 40 36 31 25 19 16 16 20 23 24 23 22 20 17 16 16 16 16 18 18 18 19 20 23 23 23 23 26 28 26 27 27 28 29 41 49 40 33
43 47 50 52 48 41 37 30 24 20 20 23 25 25 23 22 20 17 15 15 15 15 15 17 18 18 19 22 23 23 21 25 23 25 27 28 25 24 38 48 40 31 31
44 52 54 51 46 41 35 30 25 23 25 26 27 25 22 20 17 15 14 14 13 15 15 16 17 18 19 20 20 17 18 21 20 18 23 25 23 32 42 38 30 30 26
55 57 55 50 43 39 35 30 27 27 27 28 27 24 21 17 14 13 12 11 13 13 14 15 20 20 20 22 21 19 16 21 20 20 22 20 24 37 31 19 18 18 18
54 55 54 48 42 38 35 32 29 28 28 26 22 19 16 15 11 10 8 8 9 13 13 17 21 20 20 22 20 19 19 17 16 17 21 28 31 24 19 23 21 21 21
57 54 50 45 42 37 32 29 26 24 28 25 22 17 14 12 9 6 3 7 9 12 16 16 24 19 19 17 16 15 15 17 19 21 23 23 17 16 20 25 26 26 29
58 56 51 46 44 36 27 26 29 26 25 23 20 16 13 10 7 4 2 3 9 11 16 19 25 23 16 15 15 15 15 15 14 15 15 11 14 21 24 24 27 29 28
52 52 52 46 42 37 27 29 25 26 25 22 19 17 15 12 8 5 3 8 9 13 21 24 17 15 15 13 12 12 11 9 7 7 8 12 16 22 24 25 31 32 34
61 55 57 53 49 39 35 32 26 25 23 20 19 17 13 10 8 7 9 9 15 19 18 14 13 12 11 11 13 10 10 7 4 8 11 14 16 22 27 31 36 35 32
64 70 66 58 52 45 41 34 27 27 28 25 22 17 14 11 11 11 11 14 14 11 9 7 7 9 11 12 11 12 7 5 5 8 12 14 18 24 28 34 35 37 30
69 61 69 62 55 51 43 37 38 33 31 28 24 20 17 12 12 12 13 12 8 5 4 6 8 8 10 13 14 10 4 5 6 5 10 15 21 27 32 36 37 30 25
59 59 65 63 55 49 50 48 42 38 35 30 26 22 16 13 12 11 10 6 2 2 3 5 8 12 16 16 12 3 3 4 6 7 11 18 23 28 34 35 36 31 24
56 57 67 65 58 55 58 54 47 43 37 31 27 21 18 14 11 10 6 3 2 2 3 6 10 14 15 15 9 3 7 11 14 11 19 21 26 32 36 35 30 25 24
57 57 63 64 60 60 56 52 47 45 37 31 26 21 18 14 10 8 6 4 1 4 8 12 15 17 19 19 17 10 6 12 13 25 15 22 36 35 28 21 20 26 29
61 60 57 58 61 61 61 56 53 47 37 32 24 21 18 14 12 11 7 3 1 6 12 17 18 19 19 18 17 11 8 6 23 14 24 28 36 28 20 19 28 29 38
62 55 52 55 61 66 58 54 48 43 39 31 27 24 20 18 16 13 8 1 7 12 16 17 17 18 17 16 15 14 11 13 11 14 19 27 32 25 20 25 37 40 39
64 60 54 55 59 60 57 53 47 45 41 37 32 27 26 24 19 12 5 5 10 13 16 16 16 18 20 19 16 12 13 13 14 19 29 43 28 29 29 33 41 40 46
71 64 61 61 57 61 58 52 54 52 43 37 36 35 31 23 15 10 6 9 13 14 12 14 20 22 23 23 21 17 15 14 16 17 26 37 39 34 24 33 36 38 58
Wind_Direction_850mb
173 171 169 165 161 156 153 150 147 142 133 116 100 102 110 111 113 114 111 106 102 96 91 86 83 79 75 69 65 59 54 51 46 44 44 41 40 38 29 22 16 12 9
163 169 168 166 160 160 155 155 152 147 137 124 105 102 108 108 108 108 107 105 100 93 87 83 78 74 69 64 60 54 48 42 37 35 40 41 38 32 23 19 13 7 357
164 165 167 160 158 163 161 157 156 155 144 126 103 97 100 105 113 109 106 99 93 90 88 81 74 69 64 60 55 50 45 41 39 38 36 40 39 29 21 15 9 4 357
160 163 163 157 159 163 164 160 158 156 144 124 96 89 98 104 104 107 102 98 96 92 84 76 70 64 58 54 51 48 44 37 35 31 35 35 33 22 18 10 5 1 355
165 163 164 158 159 160 160 159 156 153 139 122 91 93 102 108 106 106 102 96 90 82 75 69 64 60 57 55 54 49 41 32 26 25 20 24 23 13 11 2 356 356 355
169 165 162 159 159 160 159 158 157 154 146 138 112 107 112 113 113 103 98 94 85 79 72 66 63 60 55 49 43 37 29 21 17 18 8 10 8 356 359 357 352 349 350
170 169 162 155 158 161 158 157 160 163 165 157 141 127 121 111 107 101 96 89 82 77 72 66 59 53 45 37 31 24 16 15 22 10 4 6 4 1 352 345 345 340 335
174 172 167 161 160 159 161 162 167 172 175 167 143 132 121 116 109 102 97 91 83 74 65 57 50 42 32 24 18 11 7 13 10 8 14 4 359 352 339 337 338 333 325
177 176 176 170 169 167 168 171 175 180 177 156 142 132 125 118 111 106 99 88 75 64 53 44 37 29 26 19 8 5 5 6 10 359 350 343 343 346 331 333 331 331 332
180 184 180 178 177 176 176 178 184 183 164 149 138 132 128 122 116 110 96 82 67 53 44 34 27 26 19 11 12 16 13 6 3 2 351 343 349 333 327 328 333 345 0
185 185 183 177 177 180 182 184 182 171 158 147 142 139 134 128 123 108 88 75 59 46 35 26 21 10 7 7 3 4 349 348 338 336 339 344 345 321 321 335 1 15 12
178 180 181 180 180 180 181 180 173 166 158 154 152 148 144 136 125 108 86 65 53 36 19 15 358 358 348 343 341 338 335 333 329 320 324 337 318 318 330 16 20 3 359
173 175 178 177 178 178 178 178 175 167 163 158 157 153 149 136 114 102 88 59 24 25 352 344 347 339 336 329 330 332 329 335 339 331 325 319 322 325 345 1 14 14 11
176 172 173 175 173 169 174 182 178 172 163 162 162 160 148 136 139 115 71 34 18 349 336 329 324 324 325 327 331 334 328 326 326 328 330 336 337 341 14 21 31 20 5
178 177 172 172 174 173 169 171 168 163 164 161 160 159 162 157 156 135 79 337 322 326 313 300 305 316 327 336 334 337 333 328 341 343 341 335 334 346 351 356 351 355 1
182 182 179 178 171 179 178 170 161 165 162 163 162 165 169 181 184 194 265 293 295 290 294 306 314 331 342 355 350 347 336 325 334 328 334 322 335 346 344 342 347 346 345
184 183 184 179 182 179 182 181 173 167 167 164 164 175 176 196 211 228 246 264 285 293 303 313 329 349 358 359 350 350 326 313 298 317 319 317 330 339 337 337 342 338 343
196 189 185 184 181 179 185 192 185 172 172 179 190 196 208 226 230 229 252 290 299 298 308 336 351 2 356 2 1 335 309 270 269 304 310 311 323 330 330 333 334 340 349
203 196 185 187 186 188 194 187 181 183 183 190 199 212 223 242 254 271 287 292 292 305 329 334 348 357 3 358 360 348 300 262 246 244 286 309 322 329 333 331 335 338 350
195 194 189 187 188 192 192 186 185 188 194 197 207 222 246 238 246 263 277 275 297 340 329 340 341 344 345 350 1 329 216 198 201 251 311 317 324 328 329 332 331 337 346
191 188 189 189 191 189 187 184 189 193 199 207 213 223 230 236 248 262 253 212 224 267 322 342 335 328 329 339 17 166 213 253 249 307 319 321 324 332 326 323 325 341 342
192 191 189 193 193 192 186 189 196 200 201 213 224 222 223 230 237 224 197 194 198 357 343 335 338 340 345 352 355 351 200 242 246 301 313 330 336 337 339 349 352 341 341
197 194 195 196 194 190 190 195 199 203 209 219 216 214 208 202 194 182 182 178 305 335 335 340 345 355 0 1 359 2 319 280 307 266 305 343 349 353 357 355 350 342 336
195 195 197 197 192 193 198 205 207 214 217 219 214 205 197 183 181 176 170 154 349 350 350 347 356 2 8 1 355 349 337 310 319 312 314 340 0 350 346 342 344 334 336
189 193 192 192 192 196 203 208 212 212 219 213 204 194 188 177 169 152 111 32 3 353 348 353 354 358 356 360 9 4 344 333 328 315 318 330 360 349 332 337 336 333 335
188 192 196 195 197 204 209 214 218 217 211 209 195 187 176 160 141 125 77 8 353 349 355 3 1 356 356 357 360 1 1 358 340 337 329 334 338 350 338 338 332 332 333